,,Stat5,,Stat1,,Stat2,,Stat3,,Stat4,,Wind1,,Wind1,
time,status,PA1M_AVG,status,PR1M_SUM,status,RH1M_AVG,status,SR1M_AVG,status,TA1M_AVG,status,W1dAve1m,status,W1sAve1m,
2000-05-21, 00:00:01,VALID,918.597,VALID,0,VALID,98.173,VALID,0,VALID,19.4264,VALID,237,VALID,0,
2000-05-21, 00:01:00,VALID,918.597,VALID,0,VALID,97.747,VALID,0,VALID,19.3518,VALID,228,VALID,0,
2000-05-21, 00:02:00,VALID,918.598,VALID,0,VALID,96.5695,VALID,0.0169808,VALID,19.1255,VALID,207,VALID,0,
2000-05-21, 00:03:00,VALID,918.587,VALID,0,VALID,97.2396,VALID,-0.0169808,VALID,19.132,VALID,207,VALID,0,
2000-05-21, 00:04:00,VALID,918.578,VALID,0,VALID,97.5473,VALID,0,VALID,19.1419,VALID,207,VALID,0,
2000-05-21, 00:05:00,VALID,918.537,VALID,0,VALID,97.8233,VALID,-0.0169808,VALID,19.1774,VALID,207,VALID,0,
2000-05-21, 00:06:00,VALID,918.53,VALID,0,VALID,97.9848,VALID,-0.0169808,VALID,19.2259,VALID,207,VALID,0,
2000-05-21, 00:07:00,VALID,918.517,VALID,0,VALID,97.9517,VALID,0,VALID,19.2462,VALID,207,VALID,0,
2000-05-21, 00:08:00,VALID,918.506,VALID,0,VALID,98.1386,VALID,-0.0169808,VALID,19.3198,VALID,207,VALID,0,
2000-05-21, 00:09:00,VALID,918.499,VALID,0,VALID,98.4514,VALID,-0.0169808,VALID,19.4689,VALID,207,VALID,0,
2000-05-21, 00:10:00,VALID,918.494,VALID,0,VALID,98.0331,VALID,0,VALID,19.404,VALID,153,VALID,0.0582589,
2000-05-21, 00:11:00,VALID,918.489,VALID,0,VALID,97.5995,VALID,0,VALID,19.2775,VALID,127,VALID,0,
2000-05-21, 00:12:00,VALID,918.501,VALID,0,VALID,97.7495,VALID,0,VALID,19.3136,VALID,127,VALID,0,
2000-05-21, 00:13:00,VALID,918.514,VALID,0,VALID,97.5194,VALID,0,VALID,19.2358,VALID,127,VALID,0,
2000-05-21, 00:14:00,VALID,918.533,VALID,0,VALID,97.8004,VALID,-0.0339617,VALID,19.2554,VALID,127,VALID,0,
2000-05-21, 00:15:00,VALID,918.534,VALID,0,VALID,98.0318,VALID,-0.0169808,VALID,19.2942,VALID,127,VALID,0,
2000-05-21, 00:16:00,VALID,918.537,VALID,0,VALID,98.145,VALID,-0.0339617,VALID,19.3302,VALID,141,VALID,0,
2000-05-21, 00:17:00,VALID,918.542,VALID,0,VALID,98.1895,VALID,-0.0339617,VALID,19.3493,VALID,160,VALID,0,
2000-05-21, 00:18:00,VALID,918.539,VALID,0,VALID,98.2416,VALID,0,VALID,19.3521,VALID,160,VALID,0,
2000-05-21, 00:19:00,VALID,918.526,VALID,0,VALID,98.2086,VALID,-0.0509425,VALID,19.3593,VALID,160,VALID,0,
2000-05-21, 00:20:00,VALID,918.524,VALID,0,VALID,98.1361,VALID,-0.0509425,VALID,19.3367,VALID,160,VALID,0,
2000-05-21, 00:21:00,VALID,918.498,VALID,0,VALID,98.2264,VALID,-0.0339617,VALID,19.3652,VALID,157,VALID,0,
2000-05-21, 00:22:00,VALID,918.477,VALID,0,VALID,97.2371,VALID,-0.0339617,VALID,19.2137,VALID,147,VALID,0,
2000-05-21, 00:23:00,VALID,918.452,VALID,0,VALID,97.5206,VALID,0,VALID,19.2462,VALID,147,VALID,0,
2000-05-21, 00:24:00,VALID,918.421,VALID,0,VALID,97.85,VALID,-0.0339617,VALID,19.3036,VALID,147,VALID,0,
2000-05-21, 00:25:00,VALID,918.407,VALID,0,VALID,96.8874,VALID,-0.0339617,VALID,19.1165,VALID,132,VALID,0,
2000-05-21, 00:26:00,VALID,918.403,VALID,0,VALID,96.5211,VALID,-0.0339617,VALID,19.0037,VALID,106,VALID,0.122677,
2000-05-21, 00:27:00,VALID,918.4,VALID,0,VALID,96.9242,VALID,-0.0339617,VALID,18.962,VALID,102,VALID,0.237196,
2000-05-21, 00:28:00,VALID,918.383,VALID,0,VALID,97.8347,VALID,-0.0339617,VALID,19.039,VALID,101,VALID,0,
2000-05-21, 00:29:00,VALID,918.371,VALID,0,VALID,98.0153,VALID,-0.0169808,VALID,19.0716,VALID,101,VALID,0,
2000-05-21, 00:30:00,VALID,918.356,VALID,0,VALID,98.1615,VALID,0,VALID,19.084,VALID,101,VALID,0,
2000-05-21, 00:31:00,VALID,918.336,VALID,0,VALID,98.2518,VALID,-0.0339617,VALID,19.1009,VALID,101,VALID,0,
2000-05-21, 00:32:00,VALID,918.314,VALID,0,VALID,98.4298,VALID,-0.0509425,VALID,19.1366,VALID,101,VALID,0,
2000-05-21, 00:33:00,VALID,918.31,VALID,0,VALID,98.5824,VALID,-0.0169808,VALID,19.1781,VALID,116,VALID,0,
2000-05-21, 00:34:00,VALID,918.316,VALID,0,VALID,98.6905,VALID,-0.0169808,VALID,19.2363,VALID,143,VALID,0,
2000-05-21, 00:35:00,VALID,918.324,VALID,0,VALID,98.6625,VALID,-0.0339617,VALID,19.2559,VALID,140,VALID,0,
2000-05-21, 00:36:00,VALID,918.325,VALID,0,VALID,98.1335,VALID,-0.0169808,VALID,19.0556,VALID,138,VALID,0,
2000-05-21, 00:37:00,VALID,918.32,VALID,0,VALID,98.0242,VALID,0,VALID,19.0134,VALID,136,VALID,0,
2000-05-21, 00:38:00,VALID,918.31,VALID,0,VALID,98.056,VALID,-0.0509425,VALID,19.0201,VALID,136,VALID,0,
2000-05-21, 00:39:00,VALID,918.295,VALID,0,VALID,98.3472,VALID,-0.0169808,VALID,19.0616,VALID,135,VALID,0,
2000-05-21, 00:40:00,VALID,918.29,VALID,0,VALID,98.4998,VALID,0,VALID,19.1528,VALID,130,VALID,0,
2000-05-21, 00:41:00,VALID,918.299,VALID,0,VALID,98.4629,VALID,-0.0339617,VALID,19.1555,VALID,124,VALID,0,
2000-05-21, 00:42:00,VALID,918.323,VALID,0,VALID,98.4184,VALID,-0.0509425,VALID,19.1493,VALID,111,VALID,0,
2000-05-21, 00:43:00,VALID,918.337,VALID,0,VALID,98.6117,VALID,0,VALID,19.2487,VALID,75,VALID,0.50692,
2000-05-21, 00:44:00,VALID,918.352,VALID,0,VALID,98.5303,VALID,-0.0169808,VALID,19.236,VALID,94,VALID,0.345703,
2000-05-21, 00:45:00,VALID,918.365,VALID,0,VALID,98.2823,VALID,0,VALID,19.165,VALID,83,VALID,0.594727,
2000-05-21, 00:46:00,VALID,918.35,VALID,0,VALID,98.3141,VALID,-0.0339617,VALID,19.1722,VALID,74,VALID,0.642578,
2000-05-21, 00:47:00,VALID,918.339,VALID,0,VALID,98.571,VALID,-0.0169808,VALID,19.2557,VALID,99,VALID,0.757179,
2000-05-21, 00:48:00,VALID,918.322,VALID,0,VALID,98.7159,VALID,0,VALID,19.3528,VALID,87,VALID,0.96072,
2000-05-21, 00:49:00,VALID,918.335,VALID,0,VALID,98.7821,VALID,-0.0339617,VALID,19.4207,VALID,94,VALID,0.879911,
2000-05-21, 00:50:00,VALID,918.343,VALID,0,VALID,98.5417,VALID,0,VALID,19.3548,VALID,85,VALID,0.42652,
2000-05-21, 00:51:00,VALID,918.353,VALID,0,VALID,98.5646,VALID,0.0169808,VALID,19.4102,VALID,65,VALID,0.100718,
2000-05-21, 00:52:00,VALID,918.343,VALID,0,VALID,98.0242,VALID,0,VALID,19.2977,VALID,75,VALID,0.0508814,
2000-05-21, 00:53:00,VALID,918.329,VALID,0,VALID,97.5804,VALID,-0.0169808,VALID,19.2033,VALID,95,VALID,0.674479,
2000-05-21, 00:54:00,VALID,918.321,VALID,0,VALID,98.0356,VALID,0,VALID,19.2778,VALID,80,VALID,0.878125,
2000-05-21, 00:55:00,VALID,918.324,VALID,0,VALID,98.0305,VALID,0,VALID,19.2875,VALID,70,VALID,0.199013,
2000-05-21, 00:56:00,VALID,918.322,VALID,0,VALID,98.1068,VALID,-0.0169808,VALID,19.3329,VALID,71,VALID,0.290064,
2000-05-21, 00:57:00,VALID,918.317,VALID,0,VALID,98.2569,VALID,-0.0169808,VALID,19.3941,VALID,100,VALID,0.670117,
2000-05-21, 00:58:00,VALID,918.303,VALID,0,VALID,98.1488,VALID,0,VALID,19.3652,VALID,94,VALID,0.642736,
2000-05-21, 00:59:00,VALID,918.274,VALID,0,VALID,97.9453,VALID,-0.0509425,VALID,19.3138,VALID,93,VALID,0,
2000-05-21, 01:00:00,VALID,918.231,VALID,0,VALID,97.6122,VALID,0,VALID,19.2487,VALID,84,VALID,0,
2000-05-21, 01:01:00,VALID,918.195,VALID,0,VALID,97.4405,VALID,0,VALID,19.2065,VALID,75,VALID,0,
2000-05-21, 01:02:00,VALID,918.157,VALID,0,VALID,97.1684,VALID,-0.0169808,VALID,19.1717,VALID,101,VALID,0.0710938,
2000-05-21, 01:03:00,VALID,918.125,VALID,0,VALID,97.6402,VALID,0,VALID,19.1933,VALID,96,VALID,1.23137,
2000-05-21, 01:04:00,VALID,918.112,VALID,0,VALID,98.4006,VALID,-0.0169808,VALID,19.3451,VALID,102,VALID,1.07392,
2000-05-21, 01:05:00,VALID,918.101,VALID,0,VALID,98.4273,VALID,0,VALID,19.3809,VALID,95,VALID,1.11183,
2000-05-21, 01:06:00,VALID,918.097,VALID,0,VALID,98.276,VALID,0,VALID,19.3851,VALID,85,VALID,0.510417,
2000-05-21, 01:07:00,VALID,918.1,VALID,0,VALID,97.9771,VALID,-0.0169808,VALID,19.326,VALID,336,VALID,0,
2000-05-21, 01:08:00,VALID,918.096,VALID,0,VALID,97.8411,VALID,-0.0169808,VALID,19.3461,VALID,296,VALID,0,
2000-05-21, 01:09:00,VALID,918.063,VALID,0,VALID,97.8131,VALID,-0.0509425,VALID,19.3784,VALID,242,VALID,0,
2000-05-21, 01:10:00,VALID,918.032,VALID,0,VALID,97.3108,VALID,-0.0679233,VALID,19.2783,VALID,155,VALID,0,
2000-05-21, 01:11:00,VALID,917.985,VALID,0,VALID,97.354,VALID,-0.0339617,VALID,19.2683,VALID,155,VALID,0,
2000-05-21, 01:12:00,VALID,917.969,VALID,0,VALID,97.6427,VALID,-0.0339617,VALID,19.2845,VALID,155,VALID,0,
2000-05-21, 01:13:00,VALID,917.915,VALID,0,VALID,98.0204,VALID,-0.0509425,VALID,19.3297,VALID,148,VALID,0,
2000-05-21, 01:14:00,VALID,917.887,VALID,0,VALID,98.4069,VALID,-0.0509425,VALID,19.4202,VALID,146,VALID,0,
2000-05-21, 01:15:00,VALID,917.857,VALID,0,VALID,98.3612,VALID,-0.0339617,VALID,19.4555,VALID,123,VALID,0.334936,
2000-05-21, 01:16:00,VALID,917.842,VALID,0,VALID,97.6745,VALID,-0.0169808,VALID,19.327,VALID,117,VALID,0.524777,
2000-05-21, 01:17:00,VALID,917.847,VALID,0,VALID,97.4443,VALID,0.0169808,VALID,19.2547,VALID,98,VALID,0.510352,
2000-05-21, 01:18:00,VALID,917.849,VALID,0,VALID,97.279,VALID,-0.0169808,VALID,19.2003,VALID,96,VALID,0.417578,
2000-05-21, 01:19:00,VALID,917.844,VALID,0,VALID,97.6758,VALID,0,VALID,19.2365,VALID,96,VALID,0.59668,
2000-05-21, 01:20:00,VALID,917.817,VALID,0,VALID,97.9479,VALID,-0.0509425,VALID,19.2681,VALID,97,VALID,0.791807,
2000-05-21, 01:21:00,VALID,917.798,VALID,0,VALID,98.1259,VALID,-0.0169808,VALID,19.2942,VALID,104,VALID,0.948134,
2000-05-21, 01:22:00,VALID,917.764,VALID,0,VALID,98.2658,VALID,-0.0169808,VALID,19.3426,VALID,105,VALID,0.774107,
2000-05-21, 01:23:00,VALID,917.723,VALID,0,VALID,98.3624,VALID,0,VALID,19.3841,VALID,103,VALID,0.728463,
2000-05-21, 01:24:00,VALID,917.694,VALID,0,VALID,98.4387,VALID,-0.0509425,VALID,19.4465,VALID,110,VALID,0.548142,
2000-05-21, 01:25:00,VALID,917.664,VALID,0,VALID,98.1844,VALID,-0.0679233,VALID,19.4043,VALID,120,VALID,0.356971,
2000-05-21, 01:26:00,VALID,917.648,VALID,0,VALID,98.0242,VALID,-0.0169808,VALID,19.3585,VALID,118,VALID,0,
2000-05-21, 01:27:00,VALID,917.637,VALID,0,VALID,97.8881,VALID,-0.0169808,VALID,19.3325,VALID,118,VALID,0,
2000-05-21, 01:28:00,VALID,917.624,VALID,0,VALID,98.1106,VALID,-0.0169808,VALID,19.4202,VALID,118,VALID,0,
2000-05-21, 01:29:00,VALID,917.602,VALID,0,VALID,98.2594,VALID,-0.0679233,VALID,19.4656,VALID,119,VALID,0,
2000-05-21, 01:30:00,VALID,917.587,VALID,0,VALID,98.1997,VALID,-0.0339617,VALID,19.4686,VALID,93,VALID,0,
2000-05-21, 01:31:00,VALID,917.596,VALID,0,VALID,97.7457,VALID,-0.0679233,VALID,19.4013,VALID,338,VALID,0.423775,
2000-05-21, 01:32:00,VALID,917.583,VALID,0,VALID,98.2721,VALID,-0.0339617,VALID,19.5424,VALID,320,VALID,0.0380068,
2000-05-21, 01:33:00,VALID,917.555,VALID,0,VALID,98.4209,VALID,-0.0339617,VALID,19.6112,VALID,302,VALID,0,
2000-05-21, 01:34:00,VALID,917.537,VALID,0,VALID,98.4731,VALID,-0.0679233,VALID,19.6465,VALID,300,VALID,0,
2000-05-21, 01:35:00,VALID,917.509,VALID,0,VALID,98.4794,VALID,-0.0339617,VALID,19.6587,VALID,300,VALID,0,
2000-05-21, 01:36:00,VALID,917.5,VALID,0,VALID,98.3802,VALID,-0.0339617,VALID,19.6366,VALID,300,VALID,0,
2000-05-21, 01:37:00,VALID,917.492,VALID,0,VALID,98.3077,VALID,-0.0339617,VALID,19.6204,VALID,300,VALID,0,
2000-05-21, 01:38:00,VALID,917.509,VALID,0,VALID,98.2683,VALID,0,VALID,19.6197,VALID,300,VALID,0,
2000-05-21, 01:39:00,VALID,917.52,VALID,0,VALID,97.8983,VALID,0.0849042,VALID,19.5315,VALID,300,VALID,0,
2000-05-21, 01:40:00,VALID,917.527,VALID,0,VALID,97.7927,VALID,0.0169808,VALID,19.4898,VALID,300,VALID,0,
2000-05-21, 01:41:00,VALID,917.525,VALID,0,VALID,97.8843,VALID,0.0849042,VALID,19.4701,VALID,283,VALID,0,
2000-05-21, 01:42:00,VALID,917.509,VALID,0,VALID,97.6567,VALID,0.101885,VALID,19.4413,VALID,246,VALID,0,
2000-05-21, 01:43:00,VALID,917.48,VALID,0,VALID,97.2205,VALID,0.0849042,VALID,19.3444,VALID,237,VALID,0,
2000-05-21, 01:44:00,VALID,917.44,VALID,0,VALID,96.9166,VALID,0.0849042,VALID,19.2217,VALID,229,VALID,0,
2000-05-21, 01:45:00,VALID,917.404,VALID,0,VALID,96.5593,VALID,0.0509425,VALID,19.0985,VALID,228,VALID,0,
2000-05-21, 01:46:00,VALID,917.387,VALID,0,VALID,96.8251,VALID,0.0679233,VALID,19.0316,VALID,222,VALID,0,
2000-05-21, 01:47:00,VALID,917.392,VALID,0,VALID,97.2943,VALID,0.0509425,VALID,18.9891,VALID,212,VALID,0.382813,
2000-05-21, 01:48:00,VALID,917.401,VALID,0,VALID,97.6402,VALID,0.0339617,VALID,19.0023,VALID,222,VALID,0.671474,
2000-05-21, 01:49:00,VALID,917.408,VALID,0,VALID,97.7076,VALID,0.0339617,VALID,18.9829,VALID,216,VALID,0.685938,
2000-05-21, 01:50:00,VALID,917.405,VALID,0,VALID,97.4214,VALID,0.0339617,VALID,18.8992,VALID,197,VALID,0.674805,
2000-05-21, 01:51:00,VALID,917.405,VALID,0,VALID,97.8983,VALID,0.0509425,VALID,18.8927,VALID,191,VALID,0.705469,
2000-05-21, 01:52:00,VALID,917.404,VALID,0,VALID,98.3344,VALID,0.0169808,VALID,18.9608,VALID,200,VALID,0.555469,
2000-05-21, 01:53:00,VALID,917.398,VALID,0,VALID,98.1869,VALID,0.0339617,VALID,18.9312,VALID,194,VALID,0.681799,
2000-05-21, 01:54:00,VALID,917.373,VALID,0,VALID,98.1742,VALID,0.0679233,VALID,18.8669,VALID,174,VALID,0.78928,
2000-05-21, 01:55:00,VALID,917.362,VALID,0,VALID,98.6498,VALID,0,VALID,18.8985,VALID,175,VALID,0.858482,
2000-05-21, 01:56:00,VALID,917.359,VALID,0,VALID,98.7897,VALID,0.0509425,VALID,18.9864,VALID,172,VALID,0.562711,
2000-05-21, 01:57:00,VALID,917.38,VALID,0,VALID,97.6567,VALID,0.0509425,VALID,18.6828,VALID,151,VALID,0.401394,
2000-05-21, 01:58:00,VALID,917.381,VALID,0,VALID,97.9174,VALID,0.0509425,VALID,18.6311,VALID,150,VALID,0.47496,
2000-05-21, 01:59:00,VALID,917.384,VALID,0,VALID,98.7388,VALID,0.0509425,VALID,18.7213,VALID,176,VALID,0.667468,
2000-05-21, 02:00:00,VALID,917.379,VALID,0,VALID,98.9346,VALID,0.0679233,VALID,18.844,VALID,179,VALID,0.691964,
2000-05-21, 02:01:00,VALID,917.368,VALID,0,VALID,98.8749,VALID,0.0849042,VALID,18.8666,VALID,186,VALID,0.739515,
2000-05-21, 02:02:00,VALID,917.358,VALID,0,VALID,98.8876,VALID,0,VALID,18.8572,VALID,202,VALID,0.698718,
2000-05-21, 02:03:00,VALID,917.364,VALID,0,VALID,99.072,VALID,0.101885,VALID,18.9123,VALID,203,VALID,0.703711,
2000-05-21, 02:04:00,VALID,917.359,VALID,0,VALID,99.0834,VALID,0.0679233,VALID,18.9799,VALID,220,VALID,0.657517,
2000-05-21, 02:05:00,VALID,917.358,VALID,0,VALID,98.8978,VALID,0.0169808,VALID,18.9354,VALID,233,VALID,0.53674,
2000-05-21, 02:06:00,VALID,917.35,VALID,0,VALID,98.7096,VALID,0.0169808,VALID,18.8279,VALID,220,VALID,0.474609,
2000-05-21, 02:07:00,VALID,917.353,VALID,0,VALID,98.6956,VALID,0.0509425,VALID,18.7732,VALID,224,VALID,0.471875,
2000-05-21, 02:08:00,VALID,917.351,VALID,0,VALID,98.7083,VALID,0.0509425,VALID,18.728,VALID,222,VALID,0.4625,
2000-05-21, 02:09:00,VALID,917.36,VALID,0,VALID,98.7592,VALID,0.0339617,VALID,18.7151,VALID,223,VALID,0.714143,
2000-05-21, 02:10:00,VALID,917.35,VALID,0,VALID,98.9525,VALID,0.0339617,VALID,18.764,VALID,203,VALID,0.632212,
2000-05-21, 02:11:00,VALID,917.34,VALID,0,VALID,98.8812,VALID,0.0169808,VALID,18.7963,VALID,187,VALID,0.739509,
2000-05-21, 02:12:00,VALID,917.337,VALID,0,VALID,99.03,VALID,0.0339617,VALID,18.7896,VALID,193,VALID,0.863181,
2000-05-21, 02:13:00,VALID,917.335,VALID,0,VALID,99.1991,VALID,0.0169808,VALID,18.8962,VALID,195,VALID,0.787623,
2000-05-21, 02:14:00,VALID,917.343,VALID,0,VALID,99.147,VALID,0,VALID,18.9379,VALID,186,VALID,0.571957,
2000-05-21, 02:15:00,VALID,917.35,VALID,0,VALID,99.0377,VALID,0.0679233,VALID,18.9195,VALID,183,VALID,0.275174,
2000-05-21, 02:16:00,VALID,917.343,VALID,0,VALID,99.0135,VALID,0.0679233,VALID,18.8766,VALID,183,VALID,0.286892,
2000-05-21, 02:17:00,VALID,917.318,VALID,0,VALID,99.0249,VALID,0.0679233,VALID,18.8637,VALID,183,VALID,0.171415,
2000-05-21, 02:18:00,VALID,917.299,VALID,0,VALID,98.9792,VALID,0.101885,VALID,18.8277,VALID,183,VALID,0,
2000-05-21, 02:19:00,VALID,917.281,VALID,0,VALID,99.0173,VALID,0.0849042,VALID,18.8277,VALID,183,VALID,0,
2000-05-21, 02:20:00,VALID,917.26,VALID,0,VALID,98.9995,VALID,0.0169808,VALID,18.8157,VALID,183,VALID,0,
2000-05-21, 02:21:00,VALID,917.248,VALID,0,VALID,98.9359,VALID,0.0509425,VALID,18.7799,VALID,183,VALID,0,
2000-05-21, 02:22:00,VALID,917.238,VALID,0,VALID,98.9105,VALID,0.0509425,VALID,18.7342,VALID,183,VALID,0,
2000-05-21, 02:23:00,VALID,917.245,VALID,0,VALID,98.9359,VALID,0.0509425,VALID,18.6863,VALID,185,VALID,0,
2000-05-21, 02:24:00,VALID,917.24,VALID,0,VALID,98.9003,VALID,-0.0339617,VALID,18.6618,VALID,182,VALID,0.01875,
2000-05-21, 02:25:00,VALID,917.23,VALID,0,VALID,98.9079,VALID,-0.0509425,VALID,18.6427,VALID,178,VALID,0.88418,
2000-05-21, 02:26:00,VALID,917.203,VALID,0,VALID,99.0529,VALID,-0.0679233,VALID,18.6035,VALID,175,VALID,0.975718,
2000-05-21, 02:27:00,VALID,917.169,VALID,0,VALID,99.3149,VALID,-0.0339617,VALID,18.7585,VALID,175,VALID,1.03754,
2000-05-21, 02:28:00,VALID,917.152,VALID,0,VALID,99.3912,VALID,-0.0169808,VALID,18.8683,VALID,178,VALID,1.07344,
2000-05-21, 02:29:00,VALID,917.135,VALID,0,VALID,99.3466,VALID,-0.0679233,VALID,18.9172,VALID,172,VALID,0.970017,
2000-05-21, 02:30:00,VALID,917.123,VALID,0,VALID,99.3149,VALID,-0.0169808,VALID,18.9237,VALID,174,VALID,0.966639,
2000-05-21, 02:31:00,VALID,917.128,VALID,0,VALID,99.3009,VALID,-0.0339617,VALID,18.9458,VALID,172,VALID,0.928686,
2000-05-21, 02:32:00,VALID,917.127,VALID,0,VALID,99.1826,VALID,-0.0509425,VALID,18.9202,VALID,171,VALID,0.898037,
2000-05-21, 02:33:00,VALID,917.132,VALID,0,VALID,99.2462,VALID,-0.0339617,VALID,18.9304,VALID,180,VALID,1.02746,
2000-05-21, 02:34:00,VALID,917.126,VALID,0,VALID,99.2615,VALID,-0.0339617,VALID,18.965,VALID,182,VALID,1.12418,
2000-05-21, 02:35:00,VALID,917.125,VALID,0,VALID,99.1991,VALID,-0.0339617,VALID,18.965,VALID,191,VALID,1.25641,
2000-05-21, 02:36:00,VALID,917.112,VALID,0,VALID,99.1305,VALID,-0.0339617,VALID,18.9617,VALID,193,VALID,1.21484,
2000-05-21, 02:37:00,VALID,917.138,VALID,0,VALID,98.9792,VALID,-0.0339617,VALID,18.9331,VALID,190,VALID,0.752323,
2000-05-21, 02:38:00,VALID,917.14,VALID,0,VALID,98.9258,VALID,-0.0679233,VALID,18.9004,VALID,203,VALID,1.1799,
2000-05-21, 02:39:00,VALID,917.15,VALID,0,VALID,98.8825,VALID,-0.0339617,VALID,18.8944,VALID,196,VALID,1.34332,
2000-05-21, 02:40:00,VALID,917.154,VALID,0,VALID,98.8901,VALID,-0.0339617,VALID,18.8974,VALID,193,VALID,1.49004,
2000-05-21, 02:41:00,VALID,917.153,VALID,0,VALID,98.8762,VALID,-0.0509425,VALID,18.92,VALID,194,VALID,1.52129,
2000-05-21, 02:42:00,VALID,917.145,VALID,0,VALID,98.7579,VALID,-0.0509425,VALID,18.9364,VALID,193,VALID,1.26362,
2000-05-21, 02:43:00,VALID,917.128,VALID,0,VALID,98.6981,VALID,-0.0679233,VALID,18.9364,VALID,190,VALID,1.59956,
2000-05-21, 02:44:00,VALID,917.116,VALID,0,VALID,98.5951,VALID,-0.0169808,VALID,18.9523,VALID,188,VALID,1.49576,
2000-05-21, 02:45:00,VALID,917.097,VALID,0,VALID,98.5176,VALID,-0.0339617,VALID,18.9652,VALID,189,VALID,1.30749,
2000-05-21, 02:46:00,VALID,917.081,VALID,0,VALID,98.4489,VALID,-0.0679233,VALID,18.9786,VALID,187,VALID,1.25452,
2000-05-21, 02:47:00,VALID,917.07,VALID,0,VALID,98.3917,VALID,-0.0679233,VALID,18.9846,VALID,182,VALID,1.12171,
2000-05-21, 02:48:00,VALID,917.056,VALID,0,VALID,98.2976,VALID,-0.0679233,VALID,18.991,VALID,179,VALID,0.937934,
2000-05-21, 02:49:00,VALID,917.027,VALID,0,VALID,98.2111,VALID,-0.0509425,VALID,18.9821,VALID,188,VALID,1.03451,
2000-05-21, 02:50:00,VALID,917.012,VALID,0,VALID,98.1768,VALID,-0.0679233,VALID,18.9721,VALID,187,VALID,1.08502,
2000-05-21, 02:51:00,VALID,916.979,VALID,0,VALID,98.2543,VALID,-0.0509425,VALID,18.9943,VALID,191,VALID,1.10473,
2000-05-21, 02:52:00,VALID,916.97,VALID,0,VALID,98.2938,VALID,-0.0509425,VALID,19.0077,VALID,191,VALID,1.22997,
2000-05-21, 02:53:00,VALID,916.969,VALID,0,VALID,98.2073,VALID,-0.0169808,VALID,18.994,VALID,199,VALID,1.17905,
2000-05-21, 02:54:00,VALID,916.968,VALID,0,VALID,98.2696,VALID,0.0339617,VALID,19.0256,VALID,198,VALID,0.930088,
2000-05-21, 02:55:00,VALID,916.972,VALID,0,VALID,98.2925,VALID,0,VALID,19.0355,VALID,209,VALID,0.954464,
2000-05-21, 02:56:00,VALID,916.975,VALID,0,VALID,98.2721,VALID,0.0509425,VALID,19.054,VALID,205,VALID,0.917578,
2000-05-21, 02:57:00,VALID,916.982,VALID,0,VALID,98.281,VALID,0.0339617,VALID,19.0445,VALID,215,VALID,1.0373,
2000-05-21, 02:58:00,VALID,917.001,VALID,0,VALID,98.3624,VALID,0.0339617,VALID,19.0768,VALID,214,VALID,1.06914,
2000-05-21, 02:59:00,VALID,917.005,VALID,0,VALID,98.3573,VALID,0.0849042,VALID,19.0964,VALID,205,VALID,0.974029,
2000-05-21, 03:00:00,VALID,917.007,VALID,0,VALID,98.2734,VALID,0.0679233,VALID,19.0803,VALID,203,VALID,0.610677,
2000-05-21, 03:01:00,VALID,917.005,VALID,0,VALID,98.1844,VALID,0.0679233,VALID,19.0577,VALID,197,VALID,0.907143,
2000-05-21, 03:02:00,VALID,917.006,VALID,0,VALID,98.4489,VALID,0.0509425,VALID,19.0835,VALID,198,VALID,1.02639,
2000-05-21, 03:03:00,VALID,917.014,VALID,0,VALID,98.468,VALID,0.0679233,VALID,19.125,VALID,199,VALID,0.701858,
2000-05-21, 03:04:00,VALID,917.02,VALID,0,VALID,98.3739,VALID,0.101885,VALID,19.1126,VALID,203,VALID,0.582332,
2000-05-21, 03:05:00,VALID,917.035,VALID,0,VALID,98.4006,VALID,0.0679233,VALID,19.0959,VALID,210,VALID,0.680689,
2000-05-21, 03:06:00,VALID,917.033,VALID,0,VALID,98.4108,VALID,0.0849042,VALID,19.1188,VALID,221,VALID,0.749554,
2000-05-21, 03:07:00,VALID,917.043,VALID,0,VALID,98.4298,VALID,0.0679233,VALID,19.1054,VALID,206,VALID,0.708059,
2000-05-21, 03:08:00,VALID,917.033,VALID,0,VALID,98.4095,VALID,0.0339617,VALID,19.1419,VALID,197,VALID,0.742989,
2000-05-21, 03:09:00,VALID,917.034,VALID,0,VALID,98.4565,VALID,0.0509425,VALID,19.1292,VALID,194,VALID,0.962695,
2000-05-21, 03:10:00,VALID,917.024,VALID,0,VALID,98.4883,VALID,0.0169808,VALID,19.1488,VALID,190,VALID,0.967272,
2000-05-21, 03:11:00,VALID,917.025,VALID,0,VALID,98.454,VALID,0.0169808,VALID,19.1521,VALID,190,VALID,1.00253,
2000-05-21, 03:12:00,VALID,917.02,VALID,0,VALID,98.6231,VALID,0,VALID,19.1906,VALID,190,VALID,1.12001,
2000-05-21, 03:13:00,VALID,917.02,VALID,0,VALID,98.5875,VALID,0,VALID,19.2003,VALID,193,VALID,1.21738,
2000-05-21, 03:14:00,VALID,917.025,VALID,0,VALID,98.4909,VALID,0,VALID,19.203,VALID,192,VALID,1.15645,
2000-05-21, 03:15:00,VALID,917.019,VALID,0,VALID,98.4095,VALID,0.0509425,VALID,19.1871,VALID,197,VALID,1.24018,
2000-05-21, 03:16:00,VALID,917.015,VALID,0,VALID,98.412,VALID,0.0339617,VALID,19.2003,VALID,190,VALID,1.23698,
2000-05-21, 03:17:00,VALID,917.022,VALID,0,VALID,98.3739,VALID,0.0509425,VALID,19.1975,VALID,190,VALID,1.04286,
2000-05-21, 03:18:00,VALID,916.998,VALID,0,VALID,98.2124,VALID,0,VALID,19.1645,VALID,196,VALID,0.886619,
2000-05-21, 03:19:00,VALID,916.961,VALID,0,VALID,98.2365,VALID,0.0169808,VALID,19.1655,VALID,193,VALID,0.862048,
2000-05-21, 03:20:00,VALID,916.931,VALID,0,VALID,98.1259,VALID,0.0339617,VALID,19.116,VALID,192,VALID,0.868421,
2000-05-21, 03:21:00,VALID,916.908,VALID,0,VALID,98.276,VALID,0.0339617,VALID,19.1165,VALID,185,VALID,0.939887,
2000-05-21, 03:22:00,VALID,916.895,VALID,0,VALID,98.234,VALID,0.0169808,VALID,19.1001,VALID,185,VALID,0.783637,
2000-05-21, 03:23:00,VALID,916.896,VALID,0,VALID,98.0916,VALID,-0.0169808,VALID,19.0524,VALID,195,VALID,0.77114,
2000-05-21, 03:24:00,VALID,916.903,VALID,0,VALID,98.0013,VALID,-0.0679233,VALID,18.992,VALID,195,VALID,0.729519,
2000-05-21, 03:25:00,VALID,916.904,VALID,0,VALID,97.8373,VALID,-0.0849042,VALID,18.9175,VALID,200,VALID,0.632011,
2000-05-21, 03:26:00,VALID,916.902,VALID,0,VALID,97.5804,VALID,-0.0679233,VALID,18.8266,VALID,213,VALID,0.778446,
2000-05-21, 03:27:00,VALID,916.883,VALID,0,VALID,97.7851,VALID,-0.0679233,VALID,18.7788,VALID,210,VALID,0.863782,
2000-05-21, 03:28:00,VALID,916.86,VALID,0,VALID,98.1106,VALID,-0.0849042,VALID,18.7855,VALID,210,VALID,0.744866,
2000-05-21, 03:29:00,VALID,916.86,VALID,0,VALID,98.3154,VALID,-0.0849042,VALID,18.7984,VALID,207,VALID,0.740234,
2000-05-21, 03:30:00,VALID,916.838,VALID,0,VALID,98.3968,VALID,-0.0679233,VALID,18.8012,VALID,194,VALID,0.79668,
2000-05-21, 03:31:00,VALID,916.839,VALID,0,VALID,98.5748,VALID,-0.0849042,VALID,18.8238,VALID,181,VALID,0.917578,
2000-05-21, 03:32:00,VALID,916.848,VALID,0,VALID,98.6765,VALID,-0.101885,VALID,18.8236,VALID,184,VALID,0.964527,
2000-05-21, 03:33:00,VALID,916.868,VALID,0,VALID,98.7134,VALID,-0.0849042,VALID,18.8425,VALID,186,VALID,0.756076,
2000-05-21, 03:34:00,VALID,916.885,VALID,0,VALID,98.6384,VALID,-0.101885,VALID,18.8303,VALID,183,VALID,0.787946,
2000-05-21, 03:35:00,VALID,916.896,VALID,0,VALID,98.6829,VALID,-0.0849042,VALID,18.8042,VALID,192,VALID,1.13894,